Regional Weather Roundup
Issued by NWS

Home | Current Version | Previous Version | Graphics & Text | Print | Product List | Glossary On
Versions: 1 2 3 4 5 6 7 8 9 10 11 12 13 14 15 16 17 18 19 20 21 22 23 24 25 26 27 28 29 30 31 32 33 34 35 36 37 38 39 40 41 42 43 44 45 46 47 48 49 50
000
ASUS43 KLSX 300907
RWRMO

WEATHER SUMMARY FOR MISSOURI
NATIONAL WEATHER SERVICE SPRINGFIELD MO
400 AM CDT TUE AUG 30 2016

NOTE: "FAIR" INDICATES FEW OR NO CLOUDS BELOW 12,000 FEET WITH NO
       SIGNIFICANT WEATHER AND/OR OBSTRUCTIONS TO VISIBILITY.
       CURRENT SKY AND/OR WEATHER CONDITIONS ARE NOT AVAILABLE FOR
       CHILLICOTHE AND FARMINGTON.

MOZ001>031-035>038-043-044-053-054-301000-
...NORTHERN AND WESTERN MISSOURI...

CITY           SKY/WX    TMP DP  RH WIND       PRES   REMARKS
KANSAS CTY INT LGT RAIN  71  69  93 NE13      30.16F
KANSAS C DTWN  LGT RAIN  73  70  90 NE5       30.16S
LEE`S SUMMIT   RAIN      69  68  96 N8        30.18R FOG
ST JOSEPH      MOCLDY    70  69  97 N5        30.15F
CHILLICOTHE      N/A     72  69  90 NW3       30.17R
KIRKSVILLE     PTCLDY    71  69  93 NE8       30.16S

$$
MOZ066>068-077>081-088>096-101>105-301000-
...SOUTHWEST MISSOURI...

CITY           SKY/WX    TMP DP  RH WIND       PRES   REMARKS
SPRINGFIELD    CLEAR     74  70  87 CALM      30.14S
JOPLIN         CLEAR     71  69  93 E3        30.13S
BRANSON        CLOUDY    68  68 100 CALM      30.14F

$$
MOZ032>034-039>042-045>050-055>058-069>072-301000-
...CENTRAL MISSOURI...

CITY           SKY/WX    TMP DP  RH WIND       PRES   REMARKS
COLUMBIA       CLEAR     74  72  93 E5        30.13F
JEFFERSON CITY CLEAR     72  71  97 CALM      30.12S
ROLLA          CLEAR     71  70  96 SE3       30.13F
SEDALIA        CLOUDY    74  71  91 SE3       30.14F FOG
WHITEMAN AFB   MOCLDY    76  76 100 N10       30.14R
OSAGE BEACH    CLEAR     70  69  97 CALM      30.14S FOG

$$
MOZ051-052-059>065-301000-
...EAST CENTRAL MISSOURI...

CITY           SKY/WX    TMP DP  RH WIND       PRES   REMARKS
ST LOUIS INTL  CLEAR     78  72  81 E3        30.13F
SPIRIT OF STL  CLEAR     73  73 100 CALM      30.11F FOG
ST CHARLES     CLEAR     75  74  96 NE3       30.11F

$$
MOZ072>076-082>087-097>100-106>115-301000-
...SOUTH CENTRAL AND SOUTHEAST MISSOURI...

CITY           SKY/WX    TMP DP  RH WIND       PRES   REMARKS
CAPE GIRARDEAU CLEAR     71  70  96 CALM      30.09F FOG
FARMINGTON     CLEAR     71  70  96 CALM      30.14F
POPLAR BLUFF   CLEAR     76  72  87 NE6       30.08F
WEST PLAINS    PTCLDY    72  69  90 CALM      30.15F

$$



USA.gov is the U.S. government's official web portal to all federal, state and local government web resources and services.